Location: Puketoi
(40.5833°S, 176.0167°E)
Time: 14:06:05
(UTC+00:00)

Cosmos 1703 - Pass Details

Date: 08 February 2023
Orbit: 512 x 524 km, 82.5° (Epoch: 22 March)

Event Time Altitude Azimuth Distance (km) Brightness Sun altitude
Rises 16:29:28 0° 2° (N) 2,663 6.5 -11.6°
Reaches altitude 10° 16:31:37 10° 6° (N) 1,782 5.7 -11.3°
Maximum altitude 16:35:29 60° 85° (E) 620 3.8 -10.6°
Drops below altitude 10° 16:39:23 10° 165° (SSE) 1,805 6.6 -10.0°
Sets 16:41:34 0° 168° (SSE) 2,702 7.5 -9.6°
